TimeCST,TemperatureF,Dew PointF,Humidity,Sea Level PressureIn,VisibilityMPH,Wind Direction,Wind SpeedMPH,Gust SpeedMPH,PrecipitationIn,Events,Conditions,WindDirDegrees,DateUTC
12:11 AM,12.2,5.0,73,29.89,10.0,SW,10.4,16.1,N/A,,Clear,220,2013-01-04 06:11:00
12:31 AM,10.4,5.0,79,29.91,10.0,WSW,3.5,-,N/A,,Clear,240,2013-01-04 06:31:00
12:51 AM,10.4,3.2,73,29.90,10.0,South,4.6,-,N/A,,Clear,190,2013-01-04 06:51:00
1:11 AM,10.4,3.2,73,29.90,10.0,SSW,5.8,-,N/A,,Clear,210,2013-01-04 07:11:00
1:31 AM,10.4,3.2,73,29.89,10.0,SW,5.8,-,N/A,,Clear,220,2013-01-04 07:31:00
1:51 AM,10.4,3.2,73,29.89,10.0,SW,4.6,-,N/A,,Clear,220,2013-01-04 07:51:00
2:11 AM,8.6,3.2,79,29.90,10.0,SW,4.6,-,N/A,,Clear,220,2013-01-04 08:11:00
2:31 AM,8.6,1.4,73,29.90,10.0,SW,3.5,-,N/A,,Clear,220,2013-01-04 08:31:00
2:51 AM,8.6,1.4,73,29.90,10.0,Calm,Calm,-,N/A,,Clear,0,2013-01-04 08:51:00
3:11 AM,8.6,1.4,73,29.90,10.0,SW,3.5,-,N/A,,Clear,230,2013-01-04 09:11:00
3:31 AM,8.6,1.4,73,29.91,10.0,SW,3.5,-,N/A,,Clear,230,2013-01-04 09:31:00
3:51 AM,8.6,1.4,73,29.90,10.0,SW,4.6,-,N/A,,Clear,220,2013-01-04 09:51:00
4:11 AM,6.8,-0.4,72,29.89,10.0,SW,3.5,-,N/A,,Clear,230,2013-01-04 10:11:00
4:31 AM,8.6,1.4,73,29.90,10.0,WSW,3.5,-,N/A,,Clear,240,2013-01-04 10:31:00
4:51 AM,6.8,-0.4,72,29.90,10.0,WSW,3.5,-,N/A,,Clear,250,2013-01-04 10:51:00
5:11 AM,8.6,1.4,73,29.90,10.0,SW,3.5,-,N/A,,Clear,220,2013-01-04 11:11:00
5:31 AM,6.8,-0.4,72,29.90,10.0,SW,3.5,-,N/A,,Clear,230,2013-01-04 11:31:00
5:51 AM,5.0,-0.4,78,29.91,10.0,WSW,3.5,-,N/A,,Clear,240,2013-01-04 11:51:00
6:11 AM,5.0,-0.4,78,29.91,10.0,WSW,3.5,-,N/A,,Clear,240,2013-01-04 12:11:00
6:31 AM,5.0,-0.4,78,29.93,10.0,Calm,Calm,-,N/A,,Clear,0,2013-01-04 12:31:00
7:11 AM,5.0,-0.4,78,29.93,10.0,Calm,Calm,-,N/A,,Clear,0,2013-01-04 13:11:00
7:31 AM,5.0,-2.2,72,29.93,10.0,SW,3.5,-,N/A,,Clear,220,2013-01-04 13:31:00
7:51 AM,3.2,-5.8,66,29.94,10.0,SW,3.5,-,N/A,,Clear,230,2013-01-04 13:51:00
8:11 AM,3.2,-5.8,66,29.94,10.0,SW,3.5,-,N/A,,Clear,230,2013-01-04 14:11:00
8:31 AM,3.2,-4.0,72,29.95,10.0,Calm,Calm,-,N/A,,Clear,0,2013-01-04 14:31:00
8:51 AM,5.0,-0.4,78,29.95,10.0,SSW,3.5,-,N/A,,Clear,210,2013-01-04 14:51:00
9:11 AM,10.4,3.2,73,29.96,10.0,SSW,3.5,-,N/A,,Clear,210,2013-01-04 15:11:00
9:31 AM,15.8,10.4,79,29.97,10.0,SSW,3.5,-,N/A,,Clear,200,2013-01-04 15:31:00
9:51 AM,17.6,12.2,79,29.98,10.0,SW,3.5,-,N/A,,Clear,220,2013-01-04 15:51:00
10:12 AM,21.2,14.0,74,29.98,10.0,West,3.5,-,N/A,,Clear,270,2013-01-04 16:12:00
10:25 AM,23.0,12.2,63,29.98,10.0,Calm,Calm,-,N/A,,Clear,0,2013-01-04 16:25:00
10:51 AM,26.6,12.2,55,29.97,10.0,WNW,3.5,-,N/A,,Clear,290,2013-01-04 16:51:00
11:11 AM,28.4,10.4,47,29.98,10.0,WSW,3.5,-,N/A,,Clear,250,2013-01-04 17:11:00
11:31 AM,30.2,12.2,47,29.97,10.0,West,3.5,-,N/A,,Clear,260,2013-01-04 17:31:00
11:51 AM,30.2,10.4,44,29.97,10.0,SW,4.6,-,N/A,,Clear,220,2013-01-04 17:51:00
12:11 PM,32.0,10.4,41,29.97,10.0,WSW,5.8,-,N/A,,Clear,250,2013-01-04 18:11:00
12:31 PM,33.8,12.2,41,29.97,10.0,West,3.5,-,N/A,,Clear,270,2013-01-04 18:31:00
12:51 PM,33.8,12.2,41,29.97,10.0,WNW,9.2,-,N/A,,Clear,300,2013-01-04 18:51:00
1:11 PM,33.8,12.2,41,29.97,10.0,WNW,9.2,-,N/A,,Clear,300,2013-01-04 19:11:00
1:31 PM,33.8,12.2,41,29.97,10.0,NW,9.2,-,N/A,,Clear,320,2013-01-04 19:31:00
1:51 PM,33.8,12.2,41,29.97,10.0,NW,9.2,-,N/A,,Clear,320,2013-01-04 19:51:00
2:12 PM,33.8,14.0,44,29.98,10.0,NNW,8.1,-,N/A,,Clear,330,2013-01-04 20:12:00
2:31 PM,33.8,12.2,41,29.98,10.0,WNW,8.1,-,N/A,,Clear,300,2013-01-04 20:31:00
2:51 PM,32.0,12.2,44,29.99,10.0,WNW,8.1,-,N/A,,Clear,300,2013-01-04 20:51:00
3:11 PM,32.0,12.2,44,30.00,10.0,WNW,8.1,-,N/A,,Clear,300,2013-01-04 21:11:00
3:31 PM,32.0,12.2,44,30.01,10.0,West,3.5,-,N/A,,Clear,280,2013-01-04 21:31:00
3:51 PM,32.0,12.2,44,30.01,10.0,WNW,4.6,-,N/A,,Clear,290,2013-01-04 21:51:00
4:11 PM,32.0,12.2,44,30.01,10.0,WSW,3.5,-,N/A,,Clear,250,2013-01-04 22:11:00
4:51 PM,30.2,14.0,51,30.03,10.0,Calm,Calm,-,N/A,,Clear,0,2013-01-04 22:51:00
5:11 PM,28.4,14.0,55,30.03,10.0,Calm,Calm,-,N/A,,Clear,0,2013-01-04 23:11:00
5:31 PM,28.4,14.0,55,30.04,10.0,SW,3.5,-,N/A,,Clear,220,2013-01-04 23:31:00
5:51 PM,26.6,14.0,59,30.04,10.0,WSW,3.5,-,N/A,,Clear,240,2013-01-04 23:51:00
6:11 PM,26.6,14.0,59,30.05,10.0,Calm,Calm,-,N/A,,Clear,0,2013-01-05 00:11:00
6:31 PM,23.0,14.0,68,30.05,10.0,Calm,Calm,-,N/A,,Clear,0,2013-01-05 00:31:00
6:51 PM,26.6,14.0,59,30.06,10.0,SW,3.5,-,N/A,,Clear,230,2013-01-05 00:51:00
7:11 PM,23.0,14.0,68,30.05,10.0,Calm,Calm,-,N/A,,Clear,0,2013-01-05 01:11:00
7:31 PM,21.2,14.0,74,30.05,10.0,Calm,Calm,-,N/A,,Clear,0,2013-01-05 01:31:00
7:51 PM,19.4,12.2,74,30.05,10.0,Calm,Calm,-,N/A,,Clear,0,2013-01-05 01:51:00
8:11 PM,17.6,10.4,73,30.05,10.0,Calm,Calm,-,N/A,,Clear,0,2013-01-05 02:11:00
8:31 PM,17.6,12.2,79,30.04,10.0,Calm,Calm,-,N/A,,Clear,0,2013-01-05 02:31:00
8:51 PM,17.6,12.2,79,30.05,10.0,Calm,Calm,-,N/A,,Clear,0,2013-01-05 02:51:00
9:11 PM,17.6,10.4,73,30.05,10.0,Calm,Calm,-,N/A,,Clear,0,2013-01-05 03:11:00
9:31 PM,15.8,10.4,79,30.05,10.0,Calm,Calm,-,N/A,,Clear,0,2013-01-05 03:31:00
9:51 PM,15.8,10.4,79,30.06,10.0,Calm,Calm,-,N/A,,Clear,0,2013-01-05 03:51:00
10:11 PM,14.0,8.6,79,30.06,10.0,Calm,Calm,-,N/A,,Clear,0,2013-01-05 04:11:00
10:31 PM,14.0,8.6,79,30.08,10.0,Calm,Calm,-,N/A,,Clear,0,2013-01-05 04:31:00
10:51 PM,12.2,5.0,73,30.07,10.0,Calm,Calm,-,N/A,,Clear,0,2013-01-05 04:51:00
11:11 PM,12.2,5.0,73,30.06,10.0,Calm,Calm,-,N/A,,Clear,0,2013-01-05 05:11:00
11:31 PM,10.4,3.2,73,30.06,10.0,Calm,Calm,-,N/A,,Clear,0,2013-01-05 05:31:00
11:51 PM,10.4,3.2,73,30.05,10.0,Calm,Calm,-,N/A,,Clear,0,2013-01-05 05:51:00